STARLINK-34218, 64338

Orbit data source: Space-Track

STARLINK-34218, 64338 is a payload satellite owned by SpaceX/Seattle (US) in LEO that was launched on Tue, 10 Jun 2025 UTC via an FALCON 9 launch vehicle from the Air Force Eastern Test Range (AFETR). Payload-class satellites include a variety of spacecraft equipped with specific instruments for various scientific and technological missions. These include communications satellites like Starlink; space stations such as the ISS; scientific satellites like the Hubble; Earth observation satellites from companies like Planet Labs, Umbra, and HawkEye 360; GPS; miniature CubeSats for education and research; and military/defense satellites.

Loading next visibility...
Identifier
64338, 2025-124X
Orbit
LEO
Country
Flag of USUS
Related business
Manufacturer
SpaceX/Seattle
Mission
Operational Commercial Communications
Bus & Motor
STARLINK V2MO, Unknown motor
Mass
575 kg wet, ~530 kg dry
Launch date (UTC)
2025-06-10 (9 months ago)
Launch vehicle
FALCON 9
Launch site
Air Force Eastern Test Range (AFETR)
Object type
Payload
Rocket body
Debris
Shape & HBR
Box + 2 Pan, 17.7 m
Radar Cross Section
36.964 m², Large (>1 m²)

Expand to show TLE details & history
Last TLE update: 10 hours ago

TLE from 10 hours ago
0 STARLINK-34218
1 64338U 25124X   26074.45274883  .00031453  00000-0  11466-2 0  9994
2 64338  43.0020  85.5462 0001201 265.3202  94.7512 15.27609106 42707
Epoch: 2026-03-15T10:51Z
TLE epoch observation values (Epoch: 2026-03-15T10:51:57.498Z)
Latitude
-0.00007°
Longitude
109.49718°
Altitude
482.806 km
Speed
7.626 km/s
True Right ascension
05h 42m 11s
True Declination
0° 00' 00"
Sunlit
Object was in daylight at epoch
Visualization orbit readout
Latitude
Unknown
Longitude
Unknown
Altitude
Unknown
Speed
Unknown
Apparent Right ascension
Unknown
Apparent Declination
Unknown
Sunlit
N/A
Visualization observer readout
Local Sidereal Time
01:18:49
Azimuth
Unknown
Elevation
Unknown
Doppler factor
Unknown
Orbital elements
Apogee altitude
485.731 km
Perigee altitude
484.083 km
Semi-major axis
6,863.044 km
Eccentricity
0.00012
Inclination
43.002°
RAAN
85.5462°
Arg. of periapsis
265.3202°
True anomaly
94.76491°
Mean anomaly
94.7512°
Eccentric anomaly
94.75806°
Mean motion
3.8174 °/min
Orbital period
94.3 mins
BSTAR
0.0011466
Loading maneuver chart data...
Computing Atmospheric mass density...
Loading historical data...
Loading historical data...
Loading historical data...
Loading historical data...
Loading historical data...
Loading historical data...
Loading historical data...

Documentation

Showing up to 5 results
|